Location: Unspecified
(0.0000°N, 0.0000°E)
Time: 13:45:50
(UTC+00:00)

deb Explorer IX - All Passes

Search period start: 24 May 2016 00:00
Search period end: 03 June 2016 00:00
Orbit: 549 x 1134 km, 38.8° (Epoch: 21 May)

Date Brightness Start Highest point End Pass type
(mag) Time Alt. Az. Time Alt. Az. Time Alt. Az.
24 May - 07:26:17 10° S 07:29:21 19° SE 07:32:21 10° E daylight
24 May - 09:12:42 10° WSW 09:16:24 33° NW 09:20:13 10° NNE daylight
24 May - 18:21:49 10° N 18:26:19 18° NE 18:30:58 10° ENE visible
24 May - 20:06:55 10° NW 20:14:19 81° NE 20:21:46 10° SE visible
24 May - 21:56:37 10° W 22:02:16 23° SW 22:07:45 10° S visible
25 May - 07:09:04 10° SSW 07:12:27 23° SE 07:15:43 10° E daylight
25 May - 08:55:58 10° W 08:59:31 28° NW 09:03:07 10° NNE daylight
25 May - 18:04:29 10° N 18:09:15 19° NE 18:14:13 10° E daylight
25 May - 19:49:50 10° NW 19:57:10 88° NE 20:04:40 10° SE visible
25 May - 21:39:48 10° W 21:45:11 21° SW 21:50:27 10° S visible
26 May - 06:51:53 10° SSW 06:55:34 26° SE 06:59:03 10° E daylight
26 May - 08:39:14 10° W 08:42:36 24° NW 08:45:59 10° NNE daylight
26 May - 17:47:11 10° N 17:52:09 21° NE 17:57:24 10° E daylight
26 May - 19:32:46 10° NW 19:40:00 85° SW 19:47:32 10° SE visible
26 May - 21:23:02 10° W 21:28:05 19° SW 21:33:05 10° S visible
27 May - 06:34:41 10° SSW 06:38:39 31° SE 06:42:21 10° ENE daylight
27 May - 08:22:31 10° W 08:25:42 21° NW 08:28:49 10° N daylight
27 May - 17:29:55 10° N 17:35:03 22° NE 17:40:31 10° E daylight
27 May - 19:15:42 10° NW 19:22:51 78° SW 19:30:22 10° SE visible
27 May - 21:06:19 10° WSW 21:10:59 18° SW 21:15:39 10° S visible
28 May - 06:17:30 10° SSW 06:21:44 37° SE 06:25:36 10° ENE daylight
28 May - 08:05:50 10° W 08:08:45 18° NW 08:11:38 10° N daylight
28 May - 17:12:41 10° N 17:17:56 24° NE 17:23:36 10° E daylight
28 May - 18:58:40 10° NW 19:05:40 72° SW 19:13:10 10° SE visible
28 May - 20:49:40 10° WSW 20:53:54 16° SW 20:58:09 10° S visible
29 May - 06:00:20 10° SSW 06:04:48 43° SE 06:08:49 10° ENE daylight
29 May - 07:49:10 10° W 07:51:48 16° NW 07:54:23 10° N daylight
29 May - 16:55:29 10° NNW 17:00:48 26° NE 17:06:37 10° E daylight
29 May - 18:41:39 10° WNW 18:48:29 65° SW 18:55:56 10° SE visible
29 May - 20:33:06 10° WSW 20:36:48 14° SW 20:40:33 10° S visible
30 May - 05:43:08 10° SW 05:47:50 51° SE 05:51:59 10° ENE daylight
30 May - 07:32:33 10° WNW 07:34:50 14° NW 07:37:03 10° N daylight
30 May - 16:38:17 10° NNW 16:43:39 28° NE 16:49:36 10° E daylight
30 May - 18:24:39 10° WNW 18:31:19 59° SW 18:38:39 10° SE visible
30 May - 20:16:40 10° WSW 20:19:43 13° SW 20:22:48 10° S visible
31 May - 05:25:57 10° SW 05:30:51 61° SE 05:35:08 10° ENE visible
31 May - 07:16:01 10° WNW 07:17:51 12° NW 07:19:38 10° NNW daylight
31 May - 16:21:07 10° NNW 16:26:30 31° NE 16:32:33 10° ESE daylight
31 May - 18:07:40 10° WNW 18:14:08 53° SW 18:21:20 10° SE visible
31 May - 20:00:28 10° SW 20:02:37 11° SW 20:04:48 10° SSW visible
01 Jun - 05:08:45 10° SW 05:13:52 71° SE 05:18:15 10° NE visible
01 Jun - 06:59:39 10° WNW 07:00:51 11° NW 07:02:02 10° NNW daylight
01 Jun - 16:03:57 10° NNW 16:09:21 33° NE 16:15:28 10° ESE daylight
01 Jun - 17:50:43 10° WNW 17:56:59 48° SW 18:03:59 10° SSE daylight
02 Jun - 03:07:01 10° SSE 03:09:01 12° SSE 03:10:56 10° SE visible
02 Jun - 04:51:33 10° SW 04:56:50 83° SE 05:01:20 10° NE visible
02 Jun - 15:46:49 10° NNW 15:52:11 36° NE 15:58:21 10° ESE daylight
02 Jun - 17:33:46 10° WNW 17:39:48 43° SW 17:46:36 10° SSE daylight
